Dewpoint
67 68 69 68 68 68 68 68 68 67 67 66 66 66 65 65 64 64 63 63 62 62 62 62 62 61 60 59 60 61 57 49
66 67 67 67 67 67 67 66 66 65 65 64 64 64 64 64 64 64 63 63 62 61 63 62 62 61 60 59 60 61 54 49
65 65 66 65 66 66 66 65 65 64 63 63 62 59 61 62 62 63 63 62 62 62 62 62 61 61 61 61 61 52 50 51
61 62 63 63 58 64 63 61 60 60 60 61 61 63 62 60 61 63 63 63 63 63 62 61 61 56 58 59 54 53 51 50
59 62 61 59 58 60 58 58 61 62 63 63 63 63 64 63 64 64 63 63 61 61 59 58 57 57 55 55 53 52 51 49
57 60 61 60 58 59 58 58 62 63 64 63 65 65 65 64 63 63 62 60 58 58 58 57 56 54 54 53 52 52 50 50
57 59 61 60 61 63 63 64 64 65 66 66 66 65 63 63 64 62 61 59 57 55 55 54 53 52 53 52 50 49 50 49
56 58 62 62 63 64 62 61 59 60 62 63 64 64 64 63 62 62 59 57 56 54 55 52 51 51 50 51 50 50 48 48
57 59 61 61 60 60 58 58 58 58 60 62 62 62 62 59 57 55 54 54 52 51 50 51 49 47 45 43 43 43 40 41
56 57 61 61 60 58 58 59 59 60 58 59 59 59 57 57 55 54 53 51 50 50 49 46 45 44 42 40 41 40 37 38
60 61 61 60 60 60 59 60 60 59 57 56 56 55 54 53 53 52 52 50 51 48 47 46 42 40 36 35 40 38 39 35
62 61 60 59 60 60 59 60 58 57 55 53 53 52 52 52 52 50 50 48 48 47 45 43 42 40 34 34 38 40 37 37
62 60 59 60 59 58 55 55 54 52 51 51 51 50 50 51 51 50 49 47 46 43 42 41 40 40 37 34 35 34 34 34
61 60 59 59 59 58 56 54 52 50 51 51 51 50 49 48 49 47 47 45 43 43 42 41 39 40 35 35 31 31 33 32
59 59 59 59 57 54 54 53 51 49 50 50 50 49 48 47 47 46 44 43 42 42 41 40 38 38 38 34 30 28 31 33
59 59 58 56 53 52 51 47 47 49 50 50 49 50 46 45 43 43 43 43 42 42 39 40 39 37 37 36 36 35 32 31
57 54 52 52 51 51 51 50 51 50 49 48 47 47 46 44 42 43 42 43 43 43 43 42 40 38 36 36 35 36 35 34
56 51 49 51 51 52 50 51 48 47 46 44 44 42 41 40 39 42 43 42 42 42 40 41 41 40 39 38 37 36 35 35
51 48 48 50 51 51 51 48 45 43 43 43 41 40 40 41 42 41 41 40 41 41 41 41 41 40 39 39 39 38 37 35
49 47 47 49 50 48 47 44 45 43 43 40 42 41 41 42 41 40 40 40 40 40 41 41 41 41 39 39 39 39 36 34
Lifted_Index
-3 -4 -5 -5 -6 -5 -4 -3 -2 -1 -0 -0 0 0 0 0 1 1 1 1 0 1 1 1 2 3 4 4 4 3 3 3
-3 -4 -5 -5 -5 -5 -3 -2 -1 -0 0 1 1 0 0 0 0 0 0 0 0 0 1 1 2 2 3 3 3 3 3 3
-4 -4 -5 -5 -4 -3 -2 -1 0 1 1 1 0 -0 -0 -0 0 0 -0 -0 -0 -0 0 1 1 1 2 3 3 3 3 3
-4 -4 -4 -3 -2 -2 -1 0 1 1 0 -0 -1 -2 -1 -1 -1 -1 -1 -1 -1 -1 -0 0 1 1 2 2 3 3 3 4
-2 -2 -2 -1 -0 -0 0 1 -0 -1 -1 -2 -2 -2 -2 -2 -2 -2 -2 -2 -1 -1 -1 -0 0 1 2 3 3 4 4 4
-1 -1 -1 -0 -0 -0 -0 -1 -1 -2 -3 -3 -3 -3 -3 -2 -3 -3 -2 -2 -1 -1 -0 0 1 1 2 3 4 4 4 4
-0 -1 -1 -1 -1 -2 -2 -2 -2 -2 -3 -3 -3 -3 -3 -3 -3 -3 -2 -1 0 1 1 1 2 2 3 3 4 4 4 4
-1 -1 -2 -2 -2 -2 -2 -2 -1 -1 -2 -2 -2 -3 -3 -3 -2 -2 -1 0 1 2 2 3 3 3 4 4 4 4 4 4
-1 -2 -3 -3 -2 -2 -1 -1 -0 0 0 -0 -0 -1 -1 -1 -1 0 1 2 3 3 4 4 4 5 5 5 5 6 6 6
-2 -2 -3 -2 -1 -1 -0 0 1 1 2 2 2 1 1 2 2 2 3 4 4 4 5 5 6 6 7 7 7 7 8 8
-3 -3 -2 -2 -1 -0 0 1 1 2 3 3 3 4 4 3 3 4 4 4 4 5 5 6 7 8 8 9 9 9 9 9
-4 -3 -2 -1 -1 0 1 1 2 3 3 4 4 5 4 4 4 4 4 4 5 5 6 7 8 8 9 9 9 9 9 9
-4 -3 -2 -1 -0 0 1 2 3 3 4 5 5 5 5 5 5 5 5 5 6 6 7 8 8 9 9 10 10 10 9 9
-3 -2 -2 -1 -1 0 1 2 4 5 5 5 6 6 6 6 6 6 6 6 7 7 7 8 8 9 10 10 11 11 10 10
-3 -2 -2 -1 -0 1 2 3 4 5 5 5 6 6 6 7 7 7 7 7 7 7 8 8 9 10 10 11 11 11 12 12
-2 -2 -1 -0 1 2 3 4 4 5 5 5 6 6 7 7 8 8 8 8 8 8 8 9 10 10 11 11 11 12 12 12
-1 -0 1 1 2 3 3 4 4 5 5 5 6 7 7 8 8 8 8 8 8 8 9 9 10 10 11 11 12 12 12 12
1 1 2 3 3 3 3 4 4 5 5 6 7 7 8 9 9 9 9 9 9 9 9 9 9 10 11 11 11 11 11 11
2 3 3 3 3 4 4 4 5 6 6 7 7 8 9 9 9 9 9 9 9 9 9 9 9 10 10 10 10 10 10 10
3 3 3 3 4 4 4 5 6 6 7 7 8 8 9 9 9 9 9 9 9 9 9 9 9 9 10 10 9 9 9 9